Location: Palmerston North
(40.3500°S, 175.6170°E)
Time: 16:51:54
(UTC+13:00)

ARIANE 6 FM1 Upper Stage - Visible Passes

Search period start: 08 October 2024 00:00
Search period end: 18 October 2024 00:00
Orbit: 564 x 594 km, 62.0° (Epoch: 07 October)

Date Brightness Start Highest point End Pass type
(mag) Time Alt. Az. Time Alt. Az. Time Alt. Az.
08 Oct 3.2 04:26:34 52° SSW 04:26:34 52° SSW 04:30:16 10° SSE visible
08 Oct 5.1 06:05:06 10° SW 06:06:12 11° SSW 06:07:17 10° SSW visible
09 Oct 5.9 02:54:38 11° ESE 02:54:38 11° ESE 02:54:51 10° ESE visible
09 Oct 3.7 04:30:55 36° SSW 04:30:55 36° SSW 04:34:32 10° SSE visible
10 Oct 5.7 02:58:54 14° SE 02:58:54 14° SE 02:59:39 10° SE visible
10 Oct 4.2 04:35:11 25° SW 04:35:11 25° SW 04:38:39 10° SSE visible
11 Oct 5.5 03:03:07 17° SE 03:03:07 17° SE 03:04:12 10° SE visible
11 Oct 4.7 04:39:23 18° SW 04:39:37 18° SW 04:42:35 10° S visible
12 Oct 5.3 03:07:15 19° SSE 03:07:15 19° SSE 03:08:33 10° SSE visible
12 Oct 5.0 04:43:31 12° SW 04:44:14 13° SW 04:46:15 10° S visible
13 Oct 5.2 03:11:19 20° SSE 03:11:19 20° SSE 03:12:47 10° SSE visible
14 Oct 5.2 03:15:20 19° S 03:15:20 19° S 03:16:52 10° SSE visible
15 Oct 5.2 03:19:17 17° S 03:19:17 17° S 03:20:49 10° S visible
16 Oct 5.4 03:23:11 14° SSW 03:23:11 14° SSW 03:24:33 10° S visible
17 Oct 5.5 03:27:01 11° SSW 03:27:01 11° SSW 03:27:48 10° SSW visible
